Погода в Октябре

Беларусь     52°40′31″N   30°49′02″E
темп.,
°C
ветер,
м/с
пор.,
м/с
влажн.,
%
обл.,
%
осадки,
мм/ч
давл.,
гПа
погр.,
м
14 апреля, ср
ср1400:00+9ююв348997 0.0 101785
03:00+9ююв3590100 0.0 1017134
06:00+8ююв369098 0.0 1016163
09:00+9юв4886100 0.0 1017396
12:00+11юв5875100 0.0 1016553
15:00+13юв5660100 0.0 10161113
18:00+12ююв3669100 0.3 1015297
21:00+10ю1176100 0.3 101611
15 апреля, чт
чт1500:00+10ссв2277100 0.0 101518
03:00+9св238898 0.4 101457
06:00+9св2492100 0.4 101498
09:00+10всв2486100 0.6 1014237
12:00+10св2490100 0.9 1013254
15:00+13с227167 1.0 1013485
18:00+13ссв357393 0.1 1012280
21:00+10всв3791100 1.9 1011196
16 апреля, пт
пт1600:00+10в368660 0.6 1011146
03:00+7св36915 0.6 101295
06:00+7св5119698 0.0 1012285
09:00+10вюв698249 0.1 1013735
12:00+13вюв695796 0.1 10141710
15:00+14вюв685774 0.6 10141415
18:00+13юв466263 0.6 10141154
21:00+10в227371 0.8 101628
17 апреля, сб
сб1700:00+7в33855 0.0 101839
03:00+6в379329 0.0 1018154
06:00+7в3891100 0.1 1019241
09:00+8в3682100 0.1 1021285
12:00+12в4661100 0.0 10211095
15:00+15всв4550100 0.0 10211512
18:00+10всв4893100 2.9 1021414
21:00+9св369199 4.1 1021157
18 апреля, вс
вс1800:00+11всв5118385 0.1 1021501
03:00+8всв4118966 0.1 1022301
06:00+6всв5109231 0.0 1023260
09:00+9в698024 0.0 1023776
12:00+13вюв68587 0.0 10241289
15:00+15в674914 0.1 10241775
18:00+13всв686452 0.0 1024910
21:00+9в5117994 0.0 1026300